ELECTRON R/B (54229 NORAD) Tracking and Keplerian Element Data

This shows tracking and keplerian element data for the satellite.

Feedback or suggestion? Click here.




ElementValue
Catalog54229
NameELECTRON R/B
Epoch Orbit254
Epoch Day324.81195282
Epoch Year2022
RAAN328.9763
Inclination97.5015
Eccentricity0.003457
Argument of Perigee181.0205
Mean Anonmoly351.7055
Mean Motion16.45837307
Decay Rate0.19930313
L11 54229U 22147C 22324.81195282 .19930313 21182-5 26396-3 0 9994
L22 54229 97.5015 328.9763 0034570 181.0205 351.7055 16.45837307 2546



Live tracking and technical data element details for ELECTRON R/B (NORAD 54229). ELECTRON R/B can be tracked NOW for your location showing map with azimuth and elevation plus other details from your city location.







IsCatalogInMostPopularTable: catalog: 54229, numindb: 4
Update: records affected: 1



GetName: 54229 ELECTRON R/B

Hit Count: updated at: Sun, 04 Dec 2022 22:51:38 GMT